Location: Little Elm
(33.1626°N, 96.9375°W)
Time: 07:00:04
(UTC+00:00)

Lacrosse 5 rocket - Pass Details

Date: 08 December 2021
Orbit: 457 x 634 km, 57.0° (Epoch: 17 January)

Event Time Altitude Azimuth Distance (km) Brightness Sun altitude
Rises 23:43:02 0° 340° (NNW) 2,628 4.8 -5.1°
Reaches altitude 10° 23:46:06 10° 6° (N) 1,780 3.6 -5.7°
Maximum altitude 23:48:17 14° 39° (NE) 1,563 3.1 -6.1°
Drops below altitude 10° 23:50:32 10° 72° (ENE) 1,837 3.3 -6.5°
Enters shadow 23:51:26 - 82° (E) 2,058 3.6 -6.7°
